NIMBUS 2 DEB, 28621

Orbit data source: Space-Track

NIMBUS 2 DEB, 28621 is space debris in SSO originally from a launch on Sun, 15 May 1966 UTC launched from the Air Force Western Test Range (AFWTR). Debris objects in space refer to the collection of defunct objects orbiting the Earth. Examples of debris include non-operational satellites, rocket bodies, and fragments generated from explosions, collisions, or faulty payload assembly.

Loading next visibility...
Identifier
28621, 1966-040AM
Orbit
SSO
Country
Flag of USUS
Related business
Manufacturer
Unknown
Mission
Spacecraft
Bus & Motor
Unknown
Mass
Unknown
Launch date (UTC)
1966-05-15 (59 years ago)
Launch vehicle
Unknown
Launch site
Air Force Western Test Range (AFWTR)
Object type
Payload
Rocket body
Debris
Shape & HBR
Unknown shape, 0.1 m
Radar Cross Section
Small (<0.1 m²)

Expand to show TLE details & history
Last TLE update: 1 day ago

TLE from 1 day ago
0 NIMBUS 2 DEB
1 28621U 66040AM  25302.46796305  .00015306  00000-0  63602-2 0  9991
2 28621 100.2383 132.3630 0025654 144.6438 215.6444 14.26329407683751
Epoch: 2025-10-29T11:13Z
TLE epoch observation values (Epoch: 2025-10-29T11:13:52.007Z)
Latitude
-0.00002°
Longitude
-74.14437°
Altitude
821.889 km
Speed
7.434 km/s
True Right ascension
08h 49m 27s
True Declination
0° 00' 00"
Sunlit
Object was in daylight at epoch
Visualization orbit readout
Latitude
Unknown
Longitude
Unknown
Altitude
Unknown
Speed
Unknown
Apparent Right ascension
Unknown
Apparent Declination
Unknown
Sunlit
N/A
Visualization observer readout
Local Sidereal Time
09:09:09
Azimuth
Unknown
Elevation
Unknown
Doppler factor
Unknown
Orbital elements
Apogee altitude
819.674 km
Perigee altitude
782.838 km
Semi-major axis
7,179.393 km
Eccentricity
0.00257
Inclination
100.2383°
RAAN
132.363°
Arg. of periapsis
144.6438°
True anomaly
215.47353°
Mean anomaly
215.6444°
Eccentric anomaly
215.55892°
Mean motion
3.56789 °/min
Orbital period
100.9 mins
BSTAR
0.0063602
Loading maneuver chart data...
Computing Atmospheric mass density...
Loading historical data...
Loading historical data...
Loading historical data...
Loading historical data...
Loading historical data...
Loading historical data...
Loading historical data...

Documentation

Showing up to 5 results
|